Wind_Speed
20 20 24 24 21 20 23 32 40 45 47 47 48 49 49 46 40 39 45 47 47 46 44 41 36 31 28 26 26 25 22 20 21 22 23 23 21 21 21 22 23 23 22 23 21 18 17 15 13 13 12 10 8 6 4 3 3 4 5 7 8 8 11 12 14 16 17 18 19 20 19 19 17 16 15 15 14 14 13 12 10 8 8 8 8
22 20 20 22 24 22 21 27 35 41 46 51 55 54 51 51 50 44 42 45 48 50 48 44 40 35 31 29 28 28 28 26 24 23 23 24 25 26 25 24 24 25 24 24 23 19 17 15 14 14 12 11 8 6 4 2 2 3 5 7 8 8 10 12 14 15 16 16 18 20 20 19 19 17 16 15 15 15 14 13 11 10 9 9 8
25 23 22 21 23 23 23 25 28 31 34 40 51 60 59 58 57 50 44 42 45 51 52 47 44 39 33 32 30 29 30 31 30 27 25 25 28 30 29 26 26 26 25 25 24 21 18 17 16 14 13 11 9 7 5 1 1 3 5 7 9 9 9 11 13 15 16 16 17 19 19 19 19 19 17 15 15 15 15 14 13 11 10 10 9
27 27 26 24 25 26 26 29 30 31 30 29 35 48 59 67 66 54 46 42 41 49 55 51 47 43 38 35 34 32 32 33 35 33 27 26 29 33 33 29 26 27 27 26 24 22 21 20 17 15 14 11 8 7 5 2 2 4 6 8 10 12 11 11 12 14 16 17 17 18 18 19 19 20 19 17 16 15 16 16 14 13 12 12 11
27 28 28 28 29 30 29 32 33 32 32 30 29 33 43 59 67 59 49 42 40 46 55 53 48 46 43 40 39 37 36 36 38 38 34 30 30 34 36 32 27 25 27 26 25 25 25 23 20 18 16 12 9 8 6 2 1 4 6 8 11 14 13 12 11 12 14 16 17 18 18 18 19 20 20 19 17 16 17 17 16 15 14 13 12
25 27 28 29 30 31 32 33 34 33 32 32 31 31 34 45 59 64 57 48 42 46 54 55 51 48 46 44 43 42 40 39 40 42 41 36 33 35 39 36 28 24 25 26 27 29 28 25 22 20 18 14 12 10 8 5 3 4 5 8 11 14 15 13 13 13 14 15 17 18 18 18 19 20 20 20 20 18 18 18 18 17 15 15 14
27 26 27 29 30 32 34 34 35 35 34 34 33 34 36 41 52 62 61 51 44 46 53 58 54 50 49 49 48 47 45 43 43 44 45 42 38 37 41 40 32 25 23 26 29 32 30 28 25 23 20 18 16 13 11 9 7 6 7 8 11 14 16 16 16 16 16 16 17 17 18 18 19 20 21 21 21 20 20 20 20 19 17 16 16
32 31 30 30 30 31 34 36 37 37 35 36 36 33 33 38 44 54 57 49 42 43 51 59 59 55 54 53 52 52 49 48 47 47 47 46 41 39 43 44 38 29 24 27 32 34 32 30 27 26 24 21 19 16 14 11 10 9 10 10 11 13 16 17 18 19 20 19 18 17 18 20 20 20 21 22 22 22 22 23 22 20 19 18 17
35 36 35 34 34 32 33 34 36 38 39 39 38 34 33 37 41 47 48 42 39 39 44 55 61 61 59 56 54 54 54 51 50 49 50 49 43 41 44 46 42 34 28 28 34 35 33 31 28 27 26 24 21 19 16 13 13 12 13 14 14 14 16 17 18 20 22 22 20 19 21 22 22 22 23 24 24 24 24 25 24 23 22 20 19
39 39 39 38 38 37 36 36 36 37 41 43 41 38 37 41 44 47 48 45 42 40 41 47 53 57 56 55 54 54 55 53 49 48 49 48 44 42 44 47 45 39 32 31 35 37 34 32 29 28 27 25 23 21 18 17 17 17 19 19 19 18 18 19 19 19 21 22 21 22 24 25 24 24 25 26 26 26 26 26 26 25 24 23 21
44 44 43 42 42 41 41 40 39 39 42 45 46 44 42 43 46 49 50 48 44 42 44 47 50 51 49 49 51 53 54 53 49 46 46 45 43 42 42 45 46 44 39 36 36 38 36 34 31 30 29 27 25 23 22 22 21 21 22 22 22 22 21 21 21 19 19 21 21 23 26 27 25 25 26 27 27 27 27 27 27 27 27 25 24
49 49 49 48 47 47 46 45 44 43 43 45 48 49 48 46 45 46 47 46 44 45 49 50 53 55 51 46 47 51 54 53 49 46 45 44 42 40 40 42 45 48 47 42 39 39 38 36 34 32 30 28 26 25 25 24 23 24 26 28 28 26 23 24 24 21 19 20 21 23 25 26 25 25 26 27 26 27 28 29 28 28 28 27 26
53 53 53 53 51 51 51 50 50 48 47 47 48 51 53 52 50 48 47 47 47 49 50 50 53 59 58 48 46 48 52 51 47 45 45 45 44 43 41 41 42 45 50 49 44 41 40 39 37 33 31 29 28 26 26 25 26 29 30 32 34 31 28 29 28 25 21 20 23 24 25 25 25 26 27 26 26 28 30 30 29 29 29 29 28
55 56 57 57 57 56 55 54 54 53 51 50 50 51 53 54 54 53 51 51 53 52 51 51 53 57 59 52 45 45 47 47 45 44 44 46 47 47 44 42 40 42 47 50 47 44 43 42 40 36 32 30 29 28 28 30 31 31 30 31 34 35 35 33 31 28 25 23 24 24 24 25 28 29 30 28 28 29 30 30 29 29 31 31 30
48 52 55 59 61 61 60 58 58 57 56 54 53 54 55 55 55 55 54 55 56 55 54 54 55 57 59 57 49 45 45 44 43 43 43 44 45 44 42 42 42 41 43 47 48 46 45 43 41 38 35 33 32 33 34 35 34 32 30 30 32 35 36 33 30 28 26 26 25 23 23 26 29 31 32 31 29 29 29 30 30 30 33 33 32
39 43 48 53 58 61 63 64 63 62 61 59 57 57 58 58 57 55 55 55 56 55 54 54 53 53 56 57 53 49 46 45 45 44 44 44 43 42 41 42 43 42 40 44 48 47 45 43 41 40 39 38 37 37 37 37 35 33 31 30 31 31 32 31 29 27 26 26 26 23 22 25 28 30 32 32 31 30 29 30 30 32 34 35 35
33 37 40 45 49 55 60 65 67 67 65 64 62 59 59 61 61 59 56 55 56 55 52 51 48 48 50 53 54 52 49 47 48 46 45 45 43 42 41 41 42 42 40 43 48 48 46 44 43 43 42 41 39 38 38 37 35 34 33 32 32 32 31 31 31 29 29 30 30 29 29 30 30 32 34 33 31 29 30 31 31 32 34 36 37
30 33 37 39 42 46 51 58 65 69 68 68 67 65 62 61 62 63 61 58 57 56 52 49 47 47 49 50 52 53 50 49 51 49 47 47 45 43 42 42 42 42 41 42 47 50 49 48 47 46 44 42 40 39 39 37 36 37 36 35 35 33 32 32 31 31 32 33 33 33 34 33 33 35 36 34 30 29 30 30 30 32 35 38 39
32 34 36 38 40 43 45 49 57 65 69 70 70 69 67 65 63 64 65 62 59 57 54 51 49 47 47 47 49 53 52 50 50 50 49 49 48 45 43 43 44 42 41 42 44 48 51 51 50 48 45 43 41 40 39 39 40 40 38 37 36 33 32 33 32 31 31 31 31 31 32 32 33 35 36 34 31 30 29 29 30 32 35 37 38
35 37 39 40 42 43 45 46 51 59 65 68 71 72 72 70 66 65 66 65 62 60 57 53 52 51 49 47 48 53 54 51 49 49 50 50 50 48 45 45 45 43 42 42 43 45 47 48 48 47 45 43 41 41 42 42 41 38 36 36 35 33 32 33 33 32 30 29 30 32 32 32 32 34 35 35 34 33 31 30 31 33 34 35 38
39 40 42 43 43 44 46 46 49 54 58 60 65 71 74 74 71 67 64 62 62 64 62 57 54 54 52 50 50 53 55 53 51 52 52 51 50 49 47 46 45 44 43 43 43 44 44 44 44 43 41 40 41 42 42 39 37 36 35 34 32 31 32 33 32 31 30 30 31 32 33 33 34 35 36 37 37 36 34 33 33 35 35 35 37
42 43 44 44 43 42 44 46 48 52 56 57 59 65 71 74 74 70 64 58 57 62 66 63 58 55 54 52 52 54 55 55 56 57 55 51 49 48 47 46 45 45 45 45 44 43 41 40 38 36 35 38 39 38 35 34 34 35 34 32 31 31 32 32 31 31 31 31 32 32 33 34 36 37 36 37 38 38 37 37 36 37 37 36 37
44 45 43 42 42 39 39 43 45 48 55 58 58 60 66 71 75 73 66 59 55 57 64 66 62 57 56 54 52 53 53 53 57 59 53 46 44 44 45 45 44 46 48 47 45 44 42 39 38 36 36 38 37 34 32 33 35 34 31 30 31 32 32 32 32 32 32 33 33 33 34 35 37 38 38 37 38 39 40 40 39 39 39 38 38
46 46 44 41 41 39 37 38 40 42 51 58 60 61 63 66 72 75 71 63 56 55 58 63 63 60 58 57 54 52 51 49 51 51 44 38 37 39 42 46 47 48 50 50 47 44 43 42 41 39 38 37 35 34 35 36 35 33 31 31 32 33 33 33 33 33 34 34 35 34 34 35 36 37 37 37 38 41 42 42 43 43 43 41 40
46 48 47 44 41 39 36 35 35 37 43 51 58 62 64 64 66 72 74 67 60 57 56 58 61 60 57 56 55 52 49 46 44 41 38 34 33 36 41 47 48 49 50 50 48 45 42 41 40 39 38 37 36 38 39 39 38 35 33 33 34 35 35 34 34 35 35 35 34 33 32 33 34 35 35 36 38 40 42 43 44 44 44 42 42
46 48 49 46 40 37 35 33 33 35 38 44 51 57 62 64 60 62 69 68 61 59 59 58 60 59 55 53 53 51 48 46 44 41 39 36 34 35 39 41 42 45 49 50 48 45 43 42 41 40 40 40 41 43 42 41 38 36 34 35 36 36 36 34 34 35 34 33 32 32 32 33 34 36 37 38 39 40 41 43 44 43 43 43 43
45 48 49 45 38 33 32 32 32 33 36 41 45 48 55 62 58 54 59 63 59 59 60 59 60 60 55 50 49 50 48 46 43 41 39 38 36 34 34 34 36 38 42 45 45 45 46 45 45 45 46 46 46 45 43 40 39 37 37 37 37 35 34 33 32 33 33 32 33 33 34 35 36 38 39 40 42 42 42 43 44 44 44 44 45
42 47 49 43 34 29 29 30 32 33 34 38 43 44 46 54 57 55 55 56 54 57 60 59 60 62 58 51 47 47 48 47 43 40 38 38 38 37 36 37 37 36 36 40 45 46 47 50 52 52 51 49 47 44 42 40 38 37 36 36 34 32 31 31 32 33 34 34 34 34 35 37 39 41 41 43 44 44 43 44 45 45 45 45 45
39 45 47 38 29 28 30 30 31 33 34 35 38 40 42 48 53 54 54 52 51 55 58 57 57 59 57 53 48 47 48 48 45 42 38 35 35 36 39 42 42 38 34 37 46 51 52 54 55 50 45 42 40 37 33 31 31 31 32 32 31 31 32 33 34 35 35 34 35 36 38 41 43 44 44 46 46 45 45 46 45 44 44 45 46
38 43 45 34 25 26 31 33 32 32 32 33 33 34 38 47 50 48 46 46 49 54 56 56 56 56 55 53 52 51 50 49 46 43 39 36 33 32 36 41 44 43 38 37 45 53 54 53 49 42 34 30 27 24 23 24 26 29 31 32 33 34 35 35 35 36 36 37 38 40 42 44 45 46 46 47 47 46 46 47 46 45 44 46 48
37 41 42 33 24 26 29 30 29 29 29 31 31 31 36 45 49 47 44 45 48 51 53 54 54 54 54 53 52 52 51 49 47 44 42 39 35 33 34 36 40 44 44 42 44 49 50 48 45 37 29 26 25 25 28 30 32 34 36 36 37 37 36 36 36 36 38 40 41 43 45 46 47 47 47 47 47 47 47 47 47 47 47 48 50
34 38 38 34 29 27 27 25 24 24 25 26 28 31 36 42 43 42 44 48 49 49 50 51 51 51 52 53 52 51 51 50 50 48 43 40 38 36 36 37 35 37 41 44 47 48 46 44 42 39 36 36 35 33 33 35 36 38 38 37 37 37 37 37 38 39 41 42 43 44 46 47 48 48 48 47 46 48 49 48 48 49 50 50 50
30 33 34 36 37 30 24 22 20 18 20 24 26 29 33 36 36 38 44 50 51 49 49 51 51 50 50 51 52 51 50 50 50 49 45 42 41 38 38 38 35 31 33 39 44 45 43 42 44 47 49 47 42 35 32 33 36 36 36 36 37 38 39 39 41 42 43 43 44 45 46 47 48 48 48 47 46 48 49 49 48 51 53 52 51
25 29 31 35 39 36 26 20 19 18 19 22 24 26 30 33 32 36 45 51 51 50 51 52 53 53 52 52 52 50 47 45 47 48 46 44 43 41 39 38 35 34 37 39 40 41 42 44 46 47 45 42 38 33 31 32 34 35 36 38 40 41 41 42 43 43 44 45 45 46 47 47 48 48 48 47 46 47 48 48 48 50 53 53 51
21 24 27 30 34 32 26 18 12 14 16 19 22 22 25 27 27 31 41 48 48 47 46 45 46 48 49 49 49 48 45 42 43 46 46 45 44 43 41 39 37 38 41 41 40 41 43 43 41 38 35 34 33 31 31 32 35 38 39 41 42 42 43 43 44 44 45 46 46 46 47 48 48 48 48 47 46 46 47 47 46 47 50 50 50
17 18 20 24 27 23 20 23 20 15 11 11 14 15 16 22 23 23 30 41 45 44 43 40 37 37 41 43 44 44 46 45 45 45 45 44 43 42 42 41 40 40 40 41 41 41 40 37 34 32 30 30 30 31 33 36 39 40 40 41 42 42 43 44 44 45 46 47 47 48 48 49 48 48 49 49 47 46 45 46 45 46 47 48 48
15 15 15 18 21 17 14 19 24 24 22 17 9 4 9 20 24 19 20 27 34 36 38 38 35 34 37 38 36 35 38 42 45 44 43 41 41 41 40 39 38 37 37 36 35 34 32 30 30 30 30 32 33 35 37 39 39 39 39 39 40 41 42 43 44 45 46 47 48 49 49 50 50 50 50 51 50 48 46 46 46 46 46 48 48
16 14 12 12 15 15 13 15 19 19 19 20 17 12 6 1 7 8 9 13 19 23 27 30 32 34 36 36 36 32 27 25 31 36 38 38 37 35 34 32 30 30 31 31 29 29 29 29 30 31 32 34 35 35 36 36 37 37 37 38 39 41 42 43 44 45 46 48 49 49 50 50 51 51 52 53 53 51 50 50 48 47 48 49 48
18 15 12 9 9 10 11 14 17 16 13 14 15 14 14 13 11 8 5 2 5 10 14 16 19 24 26 28 32 33 24 14 16 23 29 31 31 29 27 25 24 24 26 27 28 28 28 28 29 29 30 32 33 33 34 35 35 36 37 38 39 41 41 42 43 44 46 48 49 49 49 49 50 51 53 54 54 54 53 52 49 48 49 50 49
22 17 13 10 7 6 7 8 11 12 11 11 10 10 10 11 11 10 9 8 6 3 3 3 5 9 12 14 18 21 19 15 13 14 17 21 24 22 18 15 15 18 21 23 23 24 26 27 28 30 31 32 33 34 35 36 37 37 38 39 41 41 42 43 44 46 47 49 50 50 50 50 51 52 53 54 54 54 54 53 51 49 48 47 48
27 22 17 12 8 7 5 5 5 6 8 8 7 6 5 5 5 4 4 4 4 4 3 2 1 1 3 6 8 11 15 17 18 16 15 16 20 21 19 18 19 21 22 23 24 26 27 28 30 31 32 33 34 35 37 38 39 40 41 42 44 45 46 47 48 50 50 51 52 53 53 53 53 54 54 53 54 54 54 54 53 51 49 46 46
29 27 23 18 13 9 6 4 3 3 3 3 2 2 1 1 1 2 2 1 1 1 1 1 1 1 1 3 5 9 13 15 17 17 18 18 19 22 23 23 22 23 23 24 26 27 28 30 32 33 34 36 37 38 40 42 43 44 46 46 47 49 50 51 52 54 55 55 56 56 56 55 56 56 55 54 53 53 53 53 54 53 51 50 49
27 27 27 25 21 16 11 7 5 4 4 4 4 4 4 4 4 5 5 5 5 5 4 4 5 5 6 6 7 10 13 15 15 16 17 18 19 21 23 24 24 24 25 27 29 31 32 34 35 36 38 40 41 43 44 46 47 49 50 51 52 54 55 56 56 57 59 60 59 57 57 57 57 57 56 54 52 51 51 51 52 53 52 52 52
25 25 25 26 25 23 20 15 10 6 4 5 6 7 8 8 9 9 10 10 10 10 10 10 10 11 12 12 13 14 15 17 18 18 19 21 22 23 24 26 27 28 29 30 32 34 36 37 39 40 42 44 45 47 48 49 51 52 54 55 57 57 58 59 59 59 60 61 60 58 57 56 55 56 55 53 51 50 49 50 52 53 53 53 54
23 23 23 23 23 24 23 22 19 15 10 6 4 6 8 10 12 12 13 14 15 15 15 16 16 17 17 18 19 19 20 21 22 23 24 25 27 28 29 31 32 33 35 36 37 39 40 42 44 45 47 48 50 51 52 53 54 55 57 58 59 60 61 61 61 60 60 60 59 56 54 53 52 52 51 50 49 49 49 49 51 53 53 54 55
20 21 22 22 21 21 21 21 21 20 17 14 9 5 2 5 9 12 14 15 17 18 19 20 20 21 22 23 24 25 26 27 28 29 30 31 32 33 35 36 37 39 40 42 43 45 46 48 49 51 52 53 53 54 55 56 56 57 58 59 60 61 61 61 60 59 58 57 55 53 51 51 50 49 48 47 49 50 49 49 51 51 52 53 54
18 19 19 20 20 20 19 18 18 18 18 18 17 15 12 8 5 3 6 10 13 15 18 20 21 22 24 25 27 28 29 30 32 33 34 35 37 38 40 41 43 44 45 47 48 50 51 52 53 53 54 54 54 55 56 56 56 56 56 56 56 55 55 55 54 53 52 52 51 50 50 50 50 49 48 47 48 49 48 48 49 49 49 51 53
18 18 18 18 18 18 18 17 17 17 17 17 17 17 16 15 14 13 10 8 6 6 7 9 12 15 17 19 21 23 25 27 29 32 33 35 36 37 39 40 42 43 45 46 47 48 48 48 48 49 50 50 50 49 49 48 47 46 44 43 43 44 44 46 47 48 49 49 50 50 49 48 47 46 45 45 46 47 47 48 48 48 49 51 52
18 17 17 17 16 16 16 16 16 16 16 16 16 16 15 15 14 14 14 15 14 13 12 11 9 8 6 6 7 9 11 14 17 20 23 25 26 27 28 29 30 32 33 34 34 34 34 34 35 36 36 36 35 34 33 33 32 32 33 33 34 36 37 39 41 43 44 44 44 43 42 41 41 40 40 40 41 42 43 44 45 45 45 45 44
18 18 17 17 17 16 15 15 15 15 15 14 14 14 14 13 13 12 12 12 12 13 13 14 14 14 13 12 11 11 10 9 9 10 11 12 13 13 14 15 16 17 17 17 17 18 18 18 18 19 19 19 19 19 19 20 20 21 21 22 23 24 25 27 28 29 30 29 28 27 28 29 31 32 32 33 34 34 35 36 37 36 36 35 35
17 17 17 17 17 17 16 16 15 14 13 12 12 12 11 11 11 10 10 10 10 10 11 11 10 10 10 10 11 11 10 9 8 8 7 6 6 5 5 5 4 4 4 4 4 5 5 6 6 6 7 7 7 8 8 9 10 11 12 12 12 13 13 14 15 15 15 15 14 14 15 17 18 19 20 22 23 24 26 27 27 27 27 28 28
Wind_Direction
253 256 256 250 248 253 246 239 239 241 247 251 251 249 249 254 251 234 225 227 230 231 231 234 238 241 242 240 239 239 242 246 247 245 240 235 238 248 253 248 237 231 231 233 232 227 224 224 224 229 235 239 238 231 235 260 284 304 317 323 328 325 319 322 322 322 331 335 334 341 349 351 350 348 341 335 332 333 332 333 334 327 319 319 313
243 250 254 254 255 258 255 245 242 245 249 250 251 250 249 250 252 247 232 224 227 232 232 233 237 241 243 244 244 243 245 247 246 246 245 239 237 241 249 254 246 236 231 231 232 227 224 223 223 227 229 227 225 225 235 261 313 320 324 328 331 327 316 314 316 317 325 331 330 334 342 345 346 347 345 338 331 330 330 328 328 325 320 318 314
233 240 247 251 251 250 252 253 252 253 255 253 249 247 248 245 244 248 243 226 222 230 233 233 236 240 242 244 245 246 247 247 245 246 247 243 239 239 244 252 250 242 234 230 228 225 222 221 222 225 225 222 222 229 234 229 13 347 343 340 336 333 320 311 311 313 319 325 326 329 334 338 340 344 346 342 334 329 328 328 325 322 317 313 311
229 233 238 244 245 246 248 250 251 252 254 259 255 247 244 243 241 246 247 231 221 229 233 233 236 239 241 244 247 248 249 247 244 243 244 244 241 237 240 247 250 244 238 231 223 220 220 221 223 223 224 222 217 217 217 179 50 10 2 354 345 340 330 319 316 315 316 321 323 324 329 331 333 338 343 342 338 330 325 325 325 320 314 310 308
232 232 234 236 239 242 243 244 248 250 249 254 260 253 247 245 243 244 245 235 222 225 231 234 236 238 239 244 248 250 250 248 244 241 241 241 241 236 236 243 248 243 240 233 221 216 220 221 220 220 221 221 210 203 210 213 7 356 351 350 348 344 336 326 325 325 323 322 322 321 323 327 328 332 336 338 336 332 326 323 324 320 314 310 306
236 235 236 236 236 238 239 240 244 248 250 253 257 257 251 245 240 239 243 243 230 222 227 231 233 235 239 244 247 249 250 248 243 240 240 238 238 236 234 238 244 242 240 234 220 216 220 222 220 218 218 219 213 210 221 234 271 316 324 332 337 337 335 328 325 328 328 326 327 325 322 323 325 328 332 333 333 332 327 323 323 322 318 313 307
242 239 238 238 238 237 235 238 242 246 252 254 255 257 250 240 236 233 237 244 237 224 225 229 231 233 237 243 248 250 251 249 242 238 238 237 235 234 231 232 237 241 242 234 221 218 221 223 222 219 218 219 220 224 231 238 254 275 291 306 317 323 326 326 325 327 327 326 330 332 329 327 326 325 328 330 330 328 325 323 324 324 322 317 309
250 246 243 240 240 239 237 238 240 243 249 249 249 251 240 229 230 229 231 241 243 231 226 227 230 235 239 243 248 250 250 248 242 238 235 234 234 232 229 229 233 238 242 232 220 220 224 225 223 221 221 223 225 228 235 246 260 272 284 295 303 309 312 314 318 322 323 322 326 331 333 332 329 326 325 327 328 326 323 322 322 321 320 318 312
253 251 250 246 243 242 241 242 242 243 246 245 245 246 234 222 222 224 229 242 250 244 235 229 229 233 240 246 249 249 248 244 240 238 234 231 232 231 226 226 229 234 239 230 220 222 227 227 225 225 224 224 226 226 232 251 268 279 289 297 302 305 306 305 306 309 313 316 321 326 328 327 325 323 320 320 322 322 321 321 319 318 318 317 315
254 253 253 251 249 246 243 244 246 246 246 245 244 246 239 229 225 227 232 238 241 245 247 243 236 233 236 243 247 245 242 239 236 235 232 228 229 230 226 224 227 233 237 231 222 222 228 228 226 227 225 224 225 224 231 250 265 276 285 293 300 303 304 305 303 301 304 307 314 320 322 321 319 316 314 312 311 313 315 317 316 314 315 316 315
254 252 252 251 250 249 247 245 244 245 247 247 245 245 243 237 234 235 239 239 238 241 247 251 248 241 234 234 239 240 237 235 234 232 229 226 227 230 229 227 229 232 236 233 225 223 227 229 228 228 227 227 228 231 239 252 262 273 281 289 295 297 299 302 300 298 299 302 308 315 317 317 315 310 310 307 303 303 306 310 312 313 312 313 312
254 252 251 250 249 249 249 247 245 243 243 244 245 244 244 242 241 242 244 244 241 240 242 245 247 250 245 232 230 234 234 233 233 231 226 224 226 229 230 231 232 233 235 235 230 225 228 231 231 229 228 230 233 237 242 249 260 272 278 283 286 286 291 297 295 290 292 297 303 310 314 315 312 308 307 306 300 297 300 304 309 309 308 309 309
254 253 252 252 251 249 249 248 248 247 244 242 242 242 240 240 241 241 241 242 239 237 241 243 244 250 252 240 226 229 232 231 230 228 224 223 226 230 232 236 238 237 237 238 235 229 228 231 233 231 229 231 233 235 239 250 263 271 277 282 280 276 282 293 292 284 283 290 297 305 310 309 306 305 303 302 299 296 297 301 304 304 303 304 304
254 253 252 252 251 250 250 249 249 249 248 246 244 243 241 240 240 239 238 239 240 240 241 245 246 249 252 247 234 226 227 227 225 224 224 224 228 232 235 238 241 241 239 236 234 231 229 229 232 233 231 231 233 238 247 258 265 269 275 281 278 273 275 285 289 283 281 286 293 301 305 301 299 300 298 297 296 295 295 297 299 299 299 299 299
258 256 255 253 251 250 249 248 248 248 248 248 247 247 245 243 241 241 240 240 242 243 243 246 250 250 250 250 242 227 221 221 220 221 223 225 228 231 235 238 241 243 240 232 228 231 232 230 231 232 234 239 245 252 258 262 262 265 271 276 275 273 274 280 285 282 278 283 290 297 301 297 295 295 294 294 295 295 294 294 294 294 294 295 297
267 264 261 258 255 252 250 248 246 246 246 246 247 248 248 247 244 242 242 242 243 244 244 246 250 251 249 250 245 230 219 218 220 220 222 224 227 230 234 238 240 243 240 230 225 229 233 232 232 233 237 245 253 258 259 260 260 262 267 271 270 270 273 277 281 279 273 277 284 288 291 289 288 290 292 293 295 295 293 291 291 291 291 293 295
277 273 269 265 262 258 255 251 248 245 245 245 245 246 248 250 249 245 242 243 245 246 244 244 247 249 250 251 246 233 222 218 221 222 222 225 228 230 234 238 239 240 239 231 226 229 233 234 236 238 240 246 253 257 257 258 259 261 265 268 266 267 271 275 278 278 274 275 278 279 280 281 282 286 288 289 290 290 289 290 293 292 290 290 292
289 282 276 271 268 264 261 258 253 249 246 245 244 244 245 248 251 250 247 243 244 246 246 244 244 246 249 252 250 241 229 219 221 225 227 227 229 230 234 238 238 238 238 234 231 232 234 236 240 244 247 249 252 254 256 259 261 262 266 267 264 265 271 275 275 276 276 276 276 276 275 276 278 281 282 283 284 285 286 291 293 291 289 290 290
295 289 283 277 272 267 263 262 258 253 249 246 244 243 243 244 247 251 252 248 244 244 245 244 243 243 244 247 250 248 238 225 223 228 229 229 230 231 234 237 238 238 239 237 236 236 237 239 242 246 250 251 249 251 257 261 263 264 264 262 261 265 272 274 273 273 273 273 273 272 272 272 273 275 277 279 280 282 284 288 290 291 292 292 290
304 298 291 284 278 272 267 263 262 258 253 248 245 243 242 241 242 245 250 251 248 245 245 245 243 241 241 241 244 250 247 235 228 229 230 230 230 230 232 236 239 239 239 240 241 241 242 243 245 248 251 251 249 253 259 262 262 261 259 258 262 268 272 270 268 268 268 267 268 268 269 269 270 273 277 279 280 282 284 285 287 291 294 293 289
312 307 300 292 284 276 269 263 261 261 260 254 249 245 243 242 241 241 244 248 249 247 247 247 244 242 243 241 241 247 249 242 235 234 232 230 231 231 232 235 237 239 240 241 243 245 247 248 248 249 250 250 253 257 260 259 257 256 256 259 265 268 267 264 263 262 263 265 266 268 269 269 270 273 277 280 282 283 283 284 286 289 292 293 290
320 315 309 300 289 280 271 263 257 255 257 257 252 247 244 242 241 240 240 242 245 246 247 248 247 245 245 244 242 245 248 245 241 238 235 230 229 231 233 235 237 238 239 241 243 245 248 249 249 248 250 253 256 258 256 254 253 255 259 262 264 263 261 260 259 259 263 265 266 267 268 270 272 275 277 280 283 283 283 284 286 287 289 290 288
325 320 314 305 295 285 274 267 261 252 249 250 249 245 243 242 240 240 239 238 240 243 245 246 247 245 245 245 245 246 248 250 247 245 241 237 234 232 232 235 237 237 238 240 244 247 248 248 249 249 251 255 256 254 251 251 253 257 261 262 261 259 257 257 259 262 265 266 267 268 269 270 272 275 277 279 281 282 282 282 283 284 285 287 287
327 324 320 313 302 291 279 270 265 255 248 246 245 242 239 239 239 239 239 237 237 238 240 243 245 245 243 244 245 245 249 253 254 252 251 251 248 241 235 233 234 235 236 237 239 242 245 248 250 252 253 253 251 249 249 252 255 257 258 258 257 257 257 258 262 265 266 267 268 270 272 273 274 277 279 279 280 280 279 279 280 282 283 285 287
329 328 325 319 308 298 287 276 268 261 255 250 245 241 237 234 234 236 237 236 235 236 237 239 242 244 243 243 244 246 248 251 252 253 255 256 254 249 242 235 232 231 233 236 237 238 240 244 247 249 249 246 244 246 248 251 254 256 254 253 254 256 258 261 264 266 268 271 272 272 273 275 277 278 279 279 278 278 278 278 280 281 282 285 288
331 332 328 320 310 299 288 279 270 265 261 255 249 244 238 233 231 233 235 234 234 235 236 237 239 242 242 241 242 245 247 248 247 248 251 254 255 255 252 247 239 232 228 230 235 239 240 243 244 244 243 242 242 245 248 251 253 253 251 250 253 256 260 263 265 268 271 273 274 275 276 277 278 279 280 280 280 281 282 283 284 284 285 287 287
333 334 330 320 309 297 287 281 274 266 261 258 253 248 241 234 230 231 232 231 230 233 236 236 238 239 240 239 239 242 244 245 244 243 244 248 252 255 258 258 255 248 235 227 229 236 240 242 242 240 240 241 242 243 246 247 249 250 250 252 256 259 261 265 267 269 272 274 276 278 280 280 281 282 283 284 284 284 285 287 288 289 289 288 286
333 335 331 320 306 295 289 284 277 268 262 259 257 253 244 234 229 230 230 227 226 230 234 235 237 238 239 239 238 239 241 242 243 243 243 247 251 253 257 259 257 255 247 234 228 231 235 237 237 236 235 237 238 239 242 244 245 247 250 253 256 258 261 264 267 270 273 275 276 278 281 283 284 286 286 287 286 285 286 287 288 289 291 290 287
334 335 333 321 304 297 294 288 280 271 263 260 259 255 243 229 226 231 231 225 223 228 232 235 236 237 238 239 237 237 239 241 243 246 246 250 253 253 256 259 255 249 245 235 230 230 232 234 236 236 235 234 233 232 236 241 244 247 252 255 257 260 262 264 267 269 271 272 274 278 281 283 285 286 286 285 285 285 285 285 286 288 290 289 287
336 339 337 324 302 295 297 291 282 272 262 258 258 253 237 223 221 228 228 221 221 227 231 233 235 235 237 239 239 240 243 243 245 248 249 250 251 248 250 258 258 251 242 234 233 237 239 239 241 244 244 242 236 230 233 243 250 255 259 262 262 262 262 263 265 267 268 271 275 278 280 282 283 283 283 283 282 282 282 282 284 287 288 287 286
339 344 344 334 311 299 301 297 284 270 260 255 251 240 226 219 220 225 223 214 217 226 230 231 234 234 236 240 242 243 245 245 244 246 247 246 247 245 244 251 259 257 249 242 239 242 245 247 246 247 247 248 247 246 250 253 255 258 260 261 261 260 260 261 264 266 270 273 276 277 279 280 281 281 281 281 281 280 280 280 280 282 283 283 284
341 345 347 345 332 311 299 296 288 271 256 246 235 222 215 216 221 225 221 213 213 221 227 230 233 233 234 239 242 242 243 243 242 243 244 243 243 242 240 243 254 257 250 244 243 244 247 248 246 245 250 255 254 253 255 256 256 256 257 258 259 260 261 262 264 267 270 272 273 275 277 279 280 281 281 280 279 278 278 278 278 278 278 279 281
342 344 345 347 345 331 306 289 284 273 254 238 226 217 217 221 222 221 217 212 211 216 222 226 229 230 230 235 239 240 239 240 240 240 240 240 240 240 238 239 245 246 240 241 245 247 247 248 249 251 255 257 253 250 252 255 255 254 256 258 260 262 264 266 267 267 268 270 272 274 276 278 279 279 279 278 276 275 275 276 277 278 277 277 279
343 345 343 344 347 347 335 305 278 267 263 253 240 232 232 234 230 222 214 209 209 216 221 222 223 224 225 228 233 235 234 235 237 238 238 238 239 239 235 231 230 232 233 237 244 246 246 248 251 253 255 256 253 250 251 252 251 253 257 260 262 264 266 267 267 268 269 272 274 275 277 278 279 279 279 278 275 274 275 275 275 277 279 281 282
348 345 344 344 346 351 358 351 303 269 267 264 257 253 246 237 231 226 218 212 212 220 226 226 225 224 225 228 231 230 228 228 231 233 234 235 236 235 233 227 223 226 231 234 237 239 240 242 244 247 251 255 253 249 247 249 251 254 258 260 262 264 265 266 268 270 272 275 276 277 279 280 281 282 282 279 275 273 274 275 275 275 278 281 284
1 351 347 348 348 355 15 23 12 354 331 294 270 263 244 224 221 224 220 217 219 225 231 236 237 233 232 235 235 230 226 226 227 226 226 229 229 228 226 223 221 225 230 233 233 232 231 233 236 240 244 247 247 247 249 253 255 257 259 260 263 265 267 269 271 273 275 277 280 281 282 283 284 285 285 283 278 275 273 273 273 273 274 277 280
9 3 353 351 353 1 22 28 21 16 14 11 357 297 226 219 222 228 226 223 225 227 230 236 239 237 235 236 235 230 225 224 225 225 223 224 225 224 222 221 219 218 220 224 226 227 229 233 238 240 242 245 248 251 253 254 255 257 259 262 264 267 269 272 273 275 277 279 281 283 284 285 286 285 285 284 283 281 278 276 275 275 276 278 279
14 13 7 356 352 353 5 21 24 25 26 30 32 32 27 242 219 222 224 221 218 217 223 230 233 232 232 233 236 238 236 226 222 223 224 222 217 212 210 212 211 209 211 214 220 227 233 238 239 241 243 246 248 250 251 253 256 259 262 264 266 268 271 274 276 278 279 281 282 284 285 286 286 285 285 284 283 282 281 280 280 279 279 280 280
20 19 17 11 357 345 347 3 15 21 28 38 41 37 29 28 33 33 26 37 175 187 203 220 228 231 233 236 239 244 250 244 218 212 216 218 212 203 200 202 205 209 215 219 221 225 231 235 238 239 241 244 246 249 253 257 260 264 266 269 271 273 275 277 279 280 281 282 283 285 285 285 285 284 283 282 281 279 279 280 282 282 281 280 280
23 22 20 16 10 358 344 346 1 13 21 30 38 43 39 32 29 26 19 10 18 63 123 168 216 230 237 242 243 246 253 262 252 226 214 213 211 207 201 200 206 215 221 222 222 225 229 234 238 240 242 246 250 254 257 261 264 267 270 273 275 277 279 280 280 281 281 281 281 281 281 281 281 281 281 280 279 278 277 279 282 283 283 282 282
21 23 25 22 16 9 356 338 340 357 10 19 29 39 45 41 29 19 6 349 351 13 33 31 3 272 233 244 255 256 259 264 267 261 247 232 227 225 218 208 207 215 219 222 228 234 238 244 249 252 255 258 261 263 265 267 269 271 273 275 276 278 279 280 281 282 281 281 280 280 279 279 279 280 280 279 277 276 275 276 278 281 282 283 284
17 20 24 26 25 18 1 340 318 309 324 354 11 3 8 15 305 282 277 264 272 313 341 326 315 315 263 244 252 256 257 259 260 260 257 252 246 241 233 223 220 223 227 233 239 244 247 251 256 258 260 262 264 266 269 272 274 275 276 277 278 279 280 281 282 282 282 281 280 280 279 279 279 279 279 278 277 277 276 276 277 278 280 281 283
15 18 21 23 26 27 22 9 345 303 274 261 252 247 245 243 239 237 236 236 240 246 245 234 227 228 229 227 228 233 240 247 252 254 255 253 247 240 234 232 232 234 237 241 245 248 251 253 255 257 259 261 263 266 269 271 274 276 277 278 280 281 281 282 281 281 281 281 280 279 279 278 278 278 277 277 277 277 276 276 276 277 278 279 282
12 15 19 23 25 28 31 31 24 7 327 281 257 247 245 244 242 239 240 242 245 246 244 241 240 238 237 238 239 239 239 242 245 248 250 252 251 249 248 249 251 253 255 256 257 258 260 261 262 264 265 266 267 269 271 272 274 276 277 279 280 281 281 282 281 281 281 281 280 279 279 278 277 276 275 275 276 276 276 275 276 277 277 278 280
8 10 16 21 24 25 28 32 35 36 32 12 309 268 255 250 247 246 247 247 248 250 250 248 247 247 247 247 248 248 248 247 247 248 249 251 252 255 256 258 260 262 263 263 264 264 265 265 266 268 269 270 271 272 273 274 275 277 278 279 280 281 281 282 281 281 280 279 279 278 278 277 276 274 273 273 274 275 275 275 275 276 276 277 279
4 6 10 15 20 22 24 27 30 32 35 38 37 26 316 266 256 254 254 253 253 254 254 254 253 253 252 252 252 252 252 252 252 252 252 253 253 254 255 257 258 259 261 262 263 264 264 265 266 267 268 269 270 271 272 274 275 276 277 278 279 280 280 280 280 279 278 277 276 275 274 274 274 274 273 273 273 274 275 275 274 275 275 276 278
360 2 4 9 13 15 17 21 24 25 27 33 37 40 40 36 18 315 276 265 260 257 256 256 257 257 256 257 256 256 255 256 256 256 256 256 256 256 257 257 258 259 259 260 261 262 263 265 266 267 268 269 270 272 273 275 276 277 277 278 277 277 278 277 276 276 275 274 273 273 273 274 275 275 275 275 275 276 276 275 274 275 275 276 277
354 356 359 3 7 9 11 14 17 18 21 25 30 33 36 38 38 35 31 21 358 324 294 276 268 264 263 263 264 264 264 264 264 263 263 263 263 263 262 262 262 263 263 264 265 267 268 271 272 274 275 276 277 278 279 279 279 279 279 278 277 276 277 276 276 276 276 276 275 275 275 275 274 273 274 275 276 276 276 276 276 276 276 276 276
349 352 354 355 357 1 6 10 13 14 16 18 20 23 25 29 32 33 33 33 32 29 25 21 14 2 346 330 315 305 299 295 290 286 282 280 278 276 274 273 272 272 271 272 274 276 279 280 281 281 280 280 280 279 278 276 275 273 271 270 270 270 271 272 272 272 272 272 270 269 269 269 269 269 271 273 274 275 276 276 276 276 275 274 274
345 348 351 352 351 352 355 360 5 10 13 15 16 16 15 16 17 19 19 21 22 24 25 26 27 28 30 30 28 23 16 5 351 336 323 310 299 289 281 275 272 269 268 268 270 271 273 273 271 270 270 270 268 267 266 266 266 266 266 266 267 268 269 270 270 269 268 266 265 265 266 267 270 272 274 274 274 275 275 274 273 272 272 272 271
341 342 345 347 347 348 349 350 352 355 360 4 9 12 12 11 10 9 7 4 1 2 5 7 9 13 17 19 18 18 18 18 16 10 2 348 331 316 303 293 286 277 272 274 276 277 277 278 278 277 276 275 274 275 276 277 279 281 283 284 284 286 287 288 289 289 289 289 290 290 288 286 285 285 283 282 281 279 277 275 273 272 272 271 270
Height
3097 3099 3101 3103 3106 3108 3109 3111 3113 3115 3116 3117 3119 3120 3124 3126 3124 3121 3121 3125 3131 3134 3137 3139 3142 3144 3146 3147 3149 3150 3152 3153 3155 3156 3157 3159 3160 3163 3165 3167 3168 3170 3171 3172 3173 3175 3177 3178 3179 3180 3180 3181 3181 3181 3181 3181 3181 3181 3182 3182 3182 3182 3181 3181 3180 3179 3178 3177 3176 3175 3176 3175 3174 3173 3172 3170 3170 3169 3169 3168 3168 3168 3168 3168 3168
3094 3096 3098 3100 3103 3105 3107 3109 3112 3114 3114 3115 3116 3117 3120 3122 3124 3122 3118 3118 3123 3129 3132 3135 3138 3140 3141 3143 3145 3147 3148 3150 3152 3153 3154 3156 3157 3159 3162 3164 3165 3167 3169 3170 3171 3173 3174 3176 3177 3177 3178 3179 3179 3179 3179 3179 3180 3180 3180 3180 3180 3180 3180 3179 3179 3178 3177 3177 3175 3174 3174 3173 3172 3172 3171 3170 3169 3168 3168 3167 3167 3167 3167 3167 3167
3090 3092 3095 3097 3100 3102 3104 3107 3109 3111 3112 3112 3113 3114 3117 3118 3119 3121 3119 3115 3116 3123 3128 3130 3133 3135 3137 3139 3141 3143 3145 3146 3148 3150 3151 3153 3154 3156 3158 3160 3162 3163 3165 3167 3168 3170 3171 3173 3174 3175 3175 3176 3177 3177 3177 3178 3178 3178 3178 3178 3178 3178 3179 3178 3177 3177 3176 3176 3175 3173 3172 3172 3171 3171 3170 3169 3168 3167 3166 3166 3166 3166 3166 3166 3166
3087 3089 3091 3093 3096 3098 3100 3102 3104 3105 3106 3107 3108 3110 3113 3114 3114 3117 3118 3114 3112 3117 3123 3125 3128 3130 3132 3134 3136 3138 3141 3142 3144 3146 3148 3150 3151 3152 3154 3156 3158 3159 3161 3164 3165 3167 3168 3169 3171 3172 3173 3174 3174 3175 3175 3176 3176 3176 3177 3177 3177 3177 3177 3177 3176 3175 3174 3174 3174 3173 3171 3171 3170 3169 3169 3168 3167 3166 3165 3165 3165 3164 3164 3164 3164
3084 3085 3087 3089 3091 3093 3095 3097 3098 3100 3102 3103 3103 3105 3107 3108 3110 3112 3114 3112 3110 3112 3117 3119 3121 3123 3126 3128 3131 3133 3136 3138 3140 3142 3144 3146 3147 3149 3150 3152 3154 3155 3157 3160 3162 3163 3164 3166 3167 3168 3170 3171 3172 3172 3173 3173 3173 3174 3174 3175 3175 3175 3175 3175 3175 3174 3173 3173 3172 3171 3170 3170 3168 3168 3167 3167 3166 3165 3164 3163 3163 3163 3163 3162 3162
3080 3082 3083 3085 3086 3088 3090 3092 3093 3095 3097 3098 3098 3099 3099 3100 3103 3105 3108 3110 3107 3105 3109 3113 3114 3117 3120 3122 3125 3128 3131 3133 3135 3137 3139 3141 3143 3144 3146 3148 3150 3151 3153 3155 3158 3159 3160 3162 3164 3165 3166 3168 3169 3169 3170 3170 3170 3171 3171 3172 3173 3173 3173 3173 3173 3173 3172 3171 3170 3169 3168 3168 3167 3166 3166 3166 3165 3164 3163 3162 3161 3161 3161 3161 3161
3077 3079 3080 3081 3083 3084 3085 3087 3089 3090 3092 3093 3093 3092 3092 3094 3096 3098 3101 3104 3101 3098 3102 3106 3108 3111 3113 3116 3118 3122 3125 3127 3129 3131 3133 3136 3137 3139 3142 3144 3146 3147 3149 3151 3154 3155 3157 3158 3160 3161 3163 3164 3166 3167 3167 3168 3168 3168 3168 3169 3170 3170 3171 3171 3171 3171 3170 3169 3168 3167 3166 3166 3165 3164 3164 3164 3163 3163 3161 3160 3159 3159 3159 3159 3159
3073 3075 3077 3078 3079 3081 3082 3083 3084 3086 3087 3087 3087 3087 3087 3089 3091 3093 3096 3098 3096 3093 3094 3098 3102 3105 3107 3109 3112 3116 3118 3121 3123 3125 3127 3130 3132 3134 3136 3139 3141 3142 3144 3146 3149 3151 3153 3154 3156 3157 3159 3160 3162 3163 3164 3165 3165 3165 3165 3166 3166 3167 3168 3168 3169 3169 3168 3167 3166 3165 3165 3164 3163 3162 3161 3161 3161 3161 3160 3159 3158 3157 3157 3157 3156
3070 3071 3072 3074 3076 3077 3078 3079 3080 3081 3082 3082 3083 3084 3084 3085 3087 3088 3091 3093 3092 3090 3090 3090 3093 3097 3100 3103 3106 3109 3112 3114 3117 3119 3122 3124 3126 3129 3131 3133 3135 3137 3139 3142 3144 3146 3148 3150 3152 3153 3155 3157 3158 3159 3160 3161 3162 3162 3163 3163 3163 3164 3164 3164 3165 3166 3166 3165 3164 3163 3163 3162 3161 3160 3158 3158 3159 3158 3158 3157 3156 3155 3154 3154 3154
3066 3067 3068 3069 3071 3073 3074 3075 3076 3076 3076 3077 3079 3081 3081 3082 3083 3084 3084 3084 3083 3084 3086 3087 3088 3089 3093 3098 3102 3103 3106 3109 3112 3114 3116 3119 3122 3124 3126 3128 3130 3132 3134 3137 3139 3141 3144 3146 3147 3149 3151 3153 3154 3155 3157 3157 3158 3159 3160 3160 3160 3161 3161 3161 3161 3162 3162 3162 3162 3161 3160 3159 3158 3158 3156 3156 3156 3156 3155 3154 3154 3153 3152 3151 3151
3060 3062 3063 3065 3066 3068 3070 3071 3071 3072 3071 3071 3073 3076 3078 3080 3081 3078 3075 3074 3074 3076 3080 3085 3087 3087 3088 3092 3097 3099 3101 3104 3108 3110 3112 3115 3118 3120 3122 3124 3125 3127 3129 3132 3134 3136 3139 3141 3143 3145 3147 3148 3150 3151 3153 3154 3155 3155 3156 3157 3158 3158 3158 3158 3158 3158 3158 3158 3158 3158 3157 3156 3155 3155 3154 3153 3153 3153 3152 3152 3151 3150 3149 3148 3148
3053 3055 3057 3058 3060 3062 3064 3065 3066 3067 3068 3068 3068 3070 3072 3074 3075 3073 3069 3069 3072 3074 3077 3081 3084 3085 3085 3086 3090 3094 3097 3100 3105 3107 3109 3112 3114 3116 3118 3120 3121 3122 3123 3126 3129 3132 3134 3136 3138 3140 3142 3144 3145 3147 3148 3150 3151 3152 3152 3154 3155 3155 3155 3155 3155 3155 3155 3155 3154 3154 3154 3153 3152 3152 3152 3151 3149 3149 3149 3148 3148 3147 3146 3146 3145
3047 3048 3050 3052 3054 3056 3057 3059 3060 3062 3064 3065 3065 3066 3067 3068 3069 3069 3069 3069 3071 3074 3076 3079 3080 3082 3083 3082 3084 3088 3093 3096 3100 3103 3105 3108 3110 3112 3114 3116 3117 3118 3119 3121 3124 3127 3129 3131 3133 3135 3138 3139 3141 3143 3144 3145 3147 3148 3148 3149 3150 3151 3151 3152 3152 3152 3152 3151 3151 3151 3150 3149 3149 3149 3149 3148 3147 3146 3145 3145 3145 3144 3143 3143 3142
3039 3040 3042 3044 3045 3047 3049 3051 3053 3055 3057 3059 3059 3060 3061 3063 3064 3066 3068 3069 3069 3071 3074 3076 3076 3078 3081 3081 3080 3082 3088 3093 3096 3099 3101 3104 3107 3109 3110 3112 3112 3113 3114 3115 3119 3122 3125 3127 3129 3132 3134 3136 3137 3139 3140 3141 3142 3143 3143 3145 3146 3147 3148 3149 3149 3148 3148 3148 3148 3147 3146 3146 3146 3146 3145 3145 3144 3143 3142 3141 3141 3140 3140 3139 3139
3032 3033 3034 3035 3036 3038 3040 3042 3045 3046 3049 3051 3052 3052 3053 3056 3058 3060 3062 3064 3065 3067 3070 3072 3073 3074 3077 3079 3078 3078 3083 3089 3092 3094 3097 3100 3103 3105 3107 3107 3108 3108 3109 3111 3114 3117 3120 3122 3125 3128 3130 3132 3134 3135 3136 3137 3138 3138 3139 3140 3142 3143 3144 3145 3145 3144 3144 3144 3144 3144 3143 3142 3142 3142 3141 3140 3140 3139 3138 3137 3137 3136 3136 3135 3135
3027 3027 3027 3027 3028 3029 3031 3033 3035 3037 3040 3042 3043 3044 3045 3047 3050 3053 3056 3058 3060 3062 3065 3067 3068 3069 3072 3076 3076 3074 3078 3085 3088 3090 3093 3097 3099 3101 3102 3102 3103 3104 3105 3106 3109 3113 3115 3117 3120 3123 3126 3128 3130 3132 3133 3133 3134 3134 3135 3136 3138 3138 3140 3141 3141 3141 3141 3140 3140 3140 3140 3139 3138 3137 3137 3136 3135 3135 3134 3134 3134 3133 3132 3131 3131
3021 3021 3021 3021 3022 3022 3023 3024 3025 3028 3031 3033 3036 3038 3039 3039 3041 3045 3049 3051 3053 3056 3059 3061 3064 3066 3067 3071 3072 3071 3072 3079 3084 3086 3089 3092 3094 3096 3097 3098 3099 3100 3102 3103 3106 3108 3110 3112 3115 3118 3121 3124 3127 3128 3129 3129 3130 3130 3131 3133 3133 3134 3136 3137 3137 3137 3137 3136 3136 3136 3136 3135 3134 3134 3133 3133 3132 3131 3130 3130 3130 3130 3128 3127 3127
3016 3015 3015 3015 3015 3015 3015 3015 3016 3018 3022 3025 3028 3031 3033 3033 3034 3036 3040 3044 3047 3050 3054 3056 3059 3062 3063 3065 3069 3070 3069 3071 3077 3081 3084 3086 3089 3091 3092 3093 3094 3096 3098 3100 3102 3103 3105 3107 3110 3113 3116 3120 3123 3124 3125 3125 3126 3126 3128 3129 3129 3130 3132 3132 3132 3133 3132 3131 3132 3132 3131 3131 3131 3130 3130 3129 3128 3127 3126 3126 3127 3126 3125 3124 3123
3011 3009 3008 3007 3007 3007 3008 3007 3006 3007 3011 3015 3018 3022 3025 3028 3028 3028 3030 3036 3041 3044 3047 3050 3052 3056 3058 3060 3064 3067 3066 3065 3070 3076 3079 3081 3084 3086 3088 3089 3090 3092 3094 3096 3097 3099 3101 3103 3106 3109 3112 3115 3118 3120 3121 3121 3121 3122 3124 3124 3124 3126 3128 3128 3128 3129 3128 3127 3127 3127 3126 3127 3127 3126 3126 3125 3124 3123 3122 3122 3122 3122 3121 3120 3120
3004 3002 3000 2999 2998 2998 2999 3000 2998 2997 2999 3004 3008 3011 3015 3019 3022 3022 3021 3026 3033 3037 3039 3042 3045 3048 3052 3055 3058 3061 3062 3062 3064 3068 3072 3076 3079 3082 3083 3085 3086 3089 3091 3092 3093 3094 3096 3098 3101 3104 3107 3110 3113 3115 3116 3116 3117 3118 3119 3120 3121 3123 3124 3123 3124 3124 3124 3123 3123 3122 3122 3123 3122 3122 3122 3121 3120 3119 3118 3118 3117 3117 3116 3116 3115
2995 2993 2990 2989 2988 2988 2989 2991 2991 2989 2990 2995 2998 3000 3004 3008 3013 3016 3015 3017 3023 3028 3031 3034 3038 3041 3046 3050 3053 3055 3058 3060 3059 3059 3062 3068 3074 3077 3079 3080 3083 3086 3087 3088 3090 3091 3092 3094 3097 3100 3103 3105 3107 3110 3111 3112 3113 3114 3115 3116 3118 3119 3118 3118 3120 3120 3119 3119 3118 3118 3118 3118 3118 3118 3118 3117 3116 3115 3114 3113 3113 3112 3111 3111 3110
2986 2983 2980 2977 2976 2976 2976 2978 2980 2980 2980 2983 2987 2990 2994 2997 3002 3007 3010 3010 3013 3018 3023 3027 3031 3036 3040 3044 3047 3049 3052 3054 3053 3051 3054 3060 3066 3071 3074 3076 3080 3082 3083 3083 3084 3086 3088 3090 3092 3096 3098 3100 3102 3104 3106 3107 3108 3109 3111 3113 3113 3113 3113 3114 3115 3115 3114 3114 3114 3114 3114 3114 3113 3113 3113 3113 3113 3112 3110 3109 3108 3107 3107 3107 3106
2980 2976 2972 2969 2966 2966 2966 2966 2967 2969 2969 2972 2974 2978 2982 2987 2991 2997 3002 3005 3006 3009 3015 3019 3024 3029 3033 3036 3040 3044 3046 3049 3049 3050 3053 3059 3063 3066 3069 3073 3075 3076 3076 3077 3079 3081 3083 3085 3087 3091 3093 3095 3096 3098 3100 3102 3103 3104 3107 3108 3108 3107 3108 3109 3109 3110 3110 3109 3109 3110 3110 3110 3109 3109 3108 3108 3108 3108 3106 3105 3104 3102 3102 3102 3102
2975 2970 2966 2962 2959 2958 2958 2957 2957 2958 2960 2961 2963 2965 2970 2976 2981 2986 2993 2997 3000 3002 3006 3011 3016 3021 3025 3029 3034 3038 3042 3045 3048 3052 3056 3060 3062 3063 3064 3065 3066 3068 3069 3071 3072 3074 3077 3079 3082 3085 3087 3089 3090 3092 3094 3096 3097 3100 3102 3102 3102 3102 3103 3104 3105 3105 3105 3105 3105 3106 3106 3106 3105 3104 3104 3104 3103 3102 3102 3101 3100 3098 3098 3098 3098
2969 2963 2959 2955 2952 2950 2950 2950 2950 2950 2951 2952 2954 2956 2959 2963 2969 2975 2982 2988 2992 2995 2999 3003 3007 3012 3018 3023 3028 3033 3037 3040 3044 3049 3053 3056 3057 3059 3058 3057 3056 3059 3062 3065 3066 3067 3070 3074 3076 3079 3081 3083 3084 3085 3087 3089 3091 3094 3096 3096 3096 3096 3097 3099 3100 3100 3100 3100 3101 3101 3101 3101 3100 3099 3099 3099 3099 3097 3096 3096 3096 3095 3094 3093 3093
2963 2958 2953 2949 2946 2944 2943 2943 2944 2944 2945 2946 2947 2948 2951 2955 2959 2964 2971 2978 2984 2988 2992 2996 3000 3005 3010 3016 3022 3027 3030 3034 3038 3042 3047 3050 3052 3054 3053 3053 3052 3052 3054 3058 3061 3064 3066 3068 3070 3072 3074 3075 3077 3078 3081 3083 3085 3087 3089 3089 3090 3091 3092 3094 3095 3095 3095 3096 3096 3096 3096 3096 3095 3094 3093 3092 3092 3092 3091 3090 3090 3089 3089 3088 3088
2959 2954 2949 2944 2941 2939 2938 2938 2938 2939 2939 2939 2940 2942 2944 2948 2952 2956 2961 2969 2977 2981 2985 2989 2994 2999 3004 3009 3015 3020 3024 3028 3033 3036 3040 3044 3047 3048 3049 3049 3050 3050 3051 3053 3056 3058 3061 3062 3062 3063 3065 3067 3070 3072 3074 3077 3078 3080 3082 3083 3084 3086 3087 3088 3089 3089 3090 3091 3090 3090 3090 3090 3089 3088 3087 3086 3085 3085 3085 3083 3082 3082 3082 3082 3081
2956 2951 2945 2940 2937 2935 2934 2933 2933 2933 2933 2934 2934 2936 2938 2941 2946 2950 2954 2962 2969 2974 2978 2982 2987 2993 2998 3003 3008 3013 3016 3021 3026 3030 3034 3038 3041 3043 3044 3044 3046 3047 3049 3051 3051 3050 3050 3050 3050 3051 3055 3059 3062 3065 3069 3071 3073 3075 3076 3078 3079 3081 3082 3083 3083 3084 3085 3085 3085 3085 3085 3084 3083 3082 3081 3080 3078 3078 3077 3076 3075 3075 3075 3074 3074
2954 2949 2942 2936 2933 2931 2930 2929 2928 2927 2928 2928 2928 2930 2932 2935 2940 2945 2950 2957 2963 2968 2972 2976 2981 2987 2993 2997 3001 3005 3009 3014 3020 3025 3029 3033 3035 3036 3037 3038 3040 3042 3043 3046 3044 3039 3037 3038 3041 3045 3050 3054 3057 3061 3065 3068 3070 3071 3072 3073 3074 3076 3077 3077 3078 3079 3080 3080 3080 3080 3080 3079 3077 3076 3075 3073 3072 3072 3071 3070 3069 3069 3069 3067 3066
2952 2947 2940 2934 2930 2929 2927 2925 2923 2922 2922 2923 2923 2924 2926 2931 2936 2941 2946 2953 2958 2962 2966 2971 2976 2982 2987 2991 2994 2998 3003 3010 3016 3020 3023 3027 3029 3030 3030 3031 3033 3035 3037 3039 3038 3034 3033 3037 3044 3050 3054 3056 3057 3060 3063 3065 3067 3068 3069 3070 3070 3071 3072 3073 3073 3074 3075 3075 3074 3074 3074 3073 3072 3072 3070 3069 3068 3067 3067 3065 3065 3064 3063 3060 3059
2949 2945 2939 2933 2930 2928 2925 2922 2920 2919 2918 2919 2919 2920 2923 2927 2933 2937 2941 2947 2951 2954 2958 2964 2970 2976 2981 2985 2988 2992 2997 3004 3009 3012 3016 3019 3022 3024 3024 3023 3024 3027 3031 3033 3033 3033 3035 3039 3045 3050 3053 3054 3056 3058 3060 3061 3063 3064 3065 3066 3066 3067 3067 3068 3069 3069 3069 3069 3069 3069 3068 3067 3067 3066 3065 3065 3064 3063 3062 3062 3060 3058 3057 3055 3054
2948 2945 2940 2935 2931 2928 2925 2922 2919 2917 2916 2916 2917 2919 2921 2925 2930 2934 2938 2942 2945 2948 2951 2957 2964 2970 2975 2978 2981 2985 2990 2995 3000 3004 3008 3012 3015 3017 3018 3017 3018 3020 3023 3025 3026 3028 3031 3035 3039 3043 3046 3049 3051 3053 3055 3056 3057 3059 3060 3061 3061 3062 3063 3064 3064 3063 3063 3063 3064 3063 3063 3062 3061 3060 3060 3060 3059 3057 3056 3056 3055 3053 3052 3051 3049
2947 2944 2941 2937 2932 2927 2923 2921 2919 2918 2917 2916 2917 2920 2922 2924 2926 2929 2932 2936 2940 2943 2946 2950 2956 2962 2967 2971 2974 2978 2983 2988 2993 2998 3001 3004 3007 3010 3011 3012 3013 3013 3014 3016 3018 3020 3024 3028 3032 3036 3039 3042 3044 3046 3048 3050 3051 3053 3055 3056 3056 3057 3057 3058 3057 3057 3057 3057 3058 3057 3057 3056 3056 3054 3054 3054 3053 3051 3049 3049 3049 3047 3045 3045 3045
2947 2944 2940 2937 2932 2927 2922 2919 2918 2918 2917 2917 2918 2920 2921 2921 2923 2925 2927 2930 2935 2938 2939 2941 2945 2951 2955 2960 2964 2970 2976 2982 2987 2991 2994 2997 3000 3003 3004 3005 3006 3006 3006 3008 3012 3015 3018 3021 3025 3029 3033 3035 3037 3039 3041 3044 3046 3048 3049 3050 3051 3051 3052 3052 3051 3050 3051 3051 3051 3051 3051 3050 3049 3048 3048 3047 3046 3045 3043 3043 3043 3041 3038 3038 3040
2947 2944 2941 2937 2934 2929 2924 2920 2918 2918 2918 2918 2918 2919 2920 2921 2923 2925 2927 2930 2933 2935 2937 2939 2944 2948 2951 2954 2959 2964 2970 2975 2980 2984 2987 2990 2993 2995 2996 2997 2998 2999 3000 3003 3007 3010 3014 3017 3020 3024 3027 3029 3031 3033 3036 3038 3041 3042 3044 3044 3045 3046 3045 3045 3045 3044 3044 3044 3044 3044 3043 3043 3042 3041 3040 3040 3040 3039 3037 3036 3037 3036 3034 3033 3034
2947 2944 2942 2939 2936 2932 2928 2923 2921 2921 2920 2919 2918 2918 2919 2922 2924 2926 2929 2931 2934 2936 2939 2942 2948 2952 2954 2956 2959 2962 2965 2968 2972 2975 2978 2980 2983 2986 2988 2990 2992 2994 2997 3000 3004 3007 3010 3013 3016 3019 3022 3024 3027 3029 3032 3034 3036 3037 3038 3038 3039 3039 3039 3038 3038 3038 3037 3036 3036 3035 3035 3034 3034 3034 3033 3032 3032 3032 3031 3030 3030 3029 3029 3028 3028
2947 2945 2943 2941 2938 2935 2932 2928 2924 2923 2923 2921 2920 2919 2921 2923 2925 2927 2929 2931 2933 2936 2939 2943 2948 2953 2955 2957 2960 2962 2961 2963 2967 2971 2973 2974 2976 2980 2983 2984 2986 2988 2993 2998 3002 3006 3008 3011 3014 3017 3019 3022 3024 3025 3027 3029 3030 3032 3032 3033 3033 3032 3032 3032 3031 3031 3030 3030 3029 3028 3027 3026 3026 3026 3025 3023 3023 3024 3024 3023 3023 3022 3022 3022 3021
2947 2946 2944 2942 2940 2938 2936 2933 2929 2927 2926 2925 2925 2924 2925 2926 2927 2928 2929 2930 2931 2934 2937 2941 2946 2950 2953 2956 2960 2961 2960 2961 2964 2967 2970 2971 2973 2976 2980 2982 2984 2987 2991 2996 3000 3004 3007 3009 3012 3015 3017 3019 3020 3021 3023 3024 3025 3026 3026 3026 3026 3026 3026 3025 3025 3025 3024 3023 3022 3022 3021 3019 3019 3018 3017 3015 3015 3016 3016 3016 3016 3015 3015 3014 3014
2947 2946 2945 2944 2942 2941 2939 2937 2934 2932 2930 2929 2929 2929 2929 2930 2930 2930 2930 2932 2934 2935 2938 2942 2946 2949 2952 2955 2958 2959 2960 2962 2963 2965 2967 2970 2973 2976 2980 2983 2986 2989 2993 2996 2998 3001 3004 3007 3010 3012 3013 3015 3016 3017 3018 3018 3019 3019 3020 3020 3020 3020 3019 3019 3019 3019 3018 3017 3016 3015 3014 3013 3012 3012 3011 3009 3008 3009 3009 3009 3009 3008 3008 3007 3007
2948 2946 2945 2944 2943 2942 2941 2939 2938 2936 2934 2932 2931 2931 2931 2932 2933 2933 2934 2935 2937 2938 2941 2944 2947 2950 2952 2954 2956 2958 2960 2961 2962 2964 2967 2970 2973 2975 2978 2980 2984 2987 2991 2994 2996 2998 3001 3004 3006 3007 3009 3010 3011 3012 3013 3013 3013 3013 3013 3013 3013 3013 3013 3013 3013 3012 3011 3010 3009 3008 3008 3007 3006 3006 3005 3003 3003 3002 3002 3002 3002 3002 3001 3001 3000
2949 2947 2945 2944 2943 2943 2942 2941 2940 2939 2937 2936 2935 2934 2933 2934 2935 2936 2937 2938 2940 2941 2944 2946 2948 2950 2952 2954 2955 2957 2959 2961 2962 2964 2966 2969 2972 2974 2975 2977 2980 2984 2988 2990 2993 2995 2998 3000 3002 3003 3004 3004 3005 3006 3006 3007 3007 3007 3007 3007 3006 3006 3006 3005 3005 3004 3003 3002 3002 3001 3000 2999 2999 2998 2998 2997 2996 2996 2995 2995 2995 2995 2995 2994 2994
2950 2947 2945 2944 2943 2943 2942 2942 2941 2940 2940 2939 2938 2937 2937 2937 2937 2938 2939 2941 2942 2943 2945 2947 2948 2950 2952 2954 2956 2958 2959 2961 2962 2964 2966 2968 2971 2972 2974 2976 2979 2982 2985 2988 2991 2993 2995 2996 2997 2998 2998 2998 2999 2999 2999 2999 3000 3000 3000 2999 2999 2999 2998 2997 2997 2996 2995 2994 2994 2993 2992 2991 2990 2989 2989 2988 2988 2988 2988 2987 2988 2988 2987 2987 2987
2953 2950 2946 2944 2943 2942 2942 2941 2941 2941 2940 2940 2940 2940 2940 2940 2940 2940 2941 2942 2943 2944 2945 2946 2948 2950 2952 2954 2956 2958 2960 2961 2962 2964 2966 2967 2969 2971 2973 2976 2978 2980 2982 2984 2986 2988 2989 2990 2991 2992 2992 2992 2993 2993 2993 2993 2993 2993 2992 2992 2992 2991 2990 2990 2989 2988 2987 2986 2985 2985 2984 2983 2982 2981 2980 2980 2980 2980 2979 2980 2980 2980 2980 2980 2979
2955 2953 2950 2947 2944 2943 2942 2941 2941 2940 2940 2940 2940 2940 2940 2941 2941 2942 2942 2942 2943 2944 2945 2946 2948 2949 2951 2953 2955 2957 2958 2960 2961 2963 2964 2965 2967 2969 2970 2972 2973 2975 2977 2978 2980 2981 2982 2983 2984 2985 2985 2986 2986 2986 2986 2986 2986 2985 2985 2984 2983 2983 2982 2982 2981 2980 2979 2978 2977 2976 2975 2974 2973 2972 2972 2972 2972 2971 2971 2971 2972 2972 2972 2972 2972
2957 2954 2952 2950 2947 2945 2943 2942 2941 2940 2940 2940 2939 2939 2939 2940 2940 2941 2941 2942 2942 2943 2944 2945 2947 2948 2950 2951 2953 2954 2956 2957 2959 2960 2961 2962 2963 2965 2966 2967 2968 2969 2970 2972 2973 2974 2975 2976 2977 2977 2977 2978 2978 2978 2978 2977 2977 2977 2976 2975 2974 2973 2973 2972 2972 2971 2970 2969 2968 2967 2966 2966 2965 2965 2964 2964 2964 2964 2963 2963 2963 2963 2964 2964 2964
2959 2956 2954 2952 2949 2947 2946 2944 2943 2942 2941 2940 2939 2938 2938 2939 2939 2939 2940 2940 2941 2942 2942 2943 2945 2946 2947 2949 2950 2951 2952 2953 2955 2956 2957 2958 2959 2960 2960 2961 2962 2963 2964 2965 2966 2967 2967 2968 2968 2969 2969 2969 2969 2969 2968 2968 2968 2967 2967 2966 2965 2964 2963 2962 2961 2961 2960 2960 2959 2959 2958 2957 2957 2957 2957 2956 2956 2956 2955 2955 2955 2955 2955 2956 2956
2961 2958 2956 2953 2951 2949 2947 2946 2945 2943 2942 2941 2939 2938 2938 2938 2938 2938 2938 2939 2939 2940 2940 2941 2942 2943 2944 2945 2946 2947 2948 2949 2950 2951 2951 2952 2953 2954 2954 2955 2955 2956 2957 2958 2958 2959 2960 2960 2960 2960 2960 2959 2959 2959 2958 2958 2958 2957 2957 2956 2956 2955 2954 2953 2953 2952 2951 2951 2951 2951 2950 2949 2949 2949 2949 2949 2948 2948 2948 2948 2948 2947 2948 2948 2948
2962 2960 2957 2955 2953 2951 2949 2947 2946 2945 2943 2942 2941 2940 2939 2938 2937 2937 2937 2937 2937 2937 2938 2938 2939 2939 2940 2941 2942 2942 2943 2943 2943 2944 2945 2945 2946 2946 2947 2948 2948 2949 2950 2950 2951 2951 2952 2952 2951 2951 2951 2950 2950 2949 2949 2949 2949 2948 2948 2948 2948 2947 2946 2946 2945 2944 2944 2943 2943 2943 2943 2942 2941 2941 2941 2941 2941 2940 2940 2940 2940 2940 2940 2940 2940
2963 2961 2959 2957 2955 2953 2951 2949 2947 2946 2944 2943 2942 2941 2940 2939 2939 2938 2938 2937 2937 2936 2936 2936 2936 2937 2937 2937 2938 2938 2938 2938 2938 2938 2938 2938 2939 2940 2940 2941 2941 2942 2943 2943 2944 2944 2944 2945 2945 2945 2944 2944 2944 2944 2944 2944 2943 2943 2943 2942 2941 2941 2940 2940 2939 2938 2937 2936 2936 2936 2935 2935 2935 2935 2934 2934 2934 2933 2933 2932 2932 2932 2932 2932 2933
2964 2962 2960 2958 2956 2954 2953 2951 2949 2948 2946 2945 2943 2942 2941 2941 2940 2939 2939 2938 2938 2938 2937 2937 2937 2937 2937 2937 2937 2937 2937 2937 2937 2937 2937 2937 2937 2938 2938 2939 2939 2940 2940 2940 2940 2941 2941 2942 2942 2942 2941 2941 2941 2941 2940 2940 2940 2939 2939 2938 2937 2936 2935 2935 2934 2933 2932 2931 2930 2929 2929 2929 2929 2929 2928 2927 2927 2927 2926 2926 2926 2926 2926 2926 2927
2964 2962 2961 2959 2957 2956 2954 2952 2951 2950 2948 2947 2946 2945 2944 2943 2942 2941 2940 2940 2939 2939 2938 2938 2938 2939 2939 2939 2939 2939 2938 2938 2938 2938 2938 2939 2939 2939 2939 2940 2940 2940 2940 2940 2940 2940 2940 2941 2941 2941 2940 2939 2939 2938 2938 2938 2937 2937 2936 2935 2934 2933 2932 2932 2931 2930 2929 2928 2927 2926 2925 2925 2924 2924 2923 2923 2922 2922 2922 2921 2921 2921 2921 2921 2921